Change the Weather History Date:

Thursday, May 9, 2013

  Actual Average (KAQP) Record (KAQP)
Temperature  
Mean Temperature 56 °F -  
Max Temperature 66 °F 64 °F 82 °F (2001)
Min Temperature 46 °F 41 °F 32 °F (1997)
Degree Days  
Heating Degree Days 9    
Growing Degree Days 6 (Base 50)    
Moisture  
Dew Point 46 °F    
Average Humidity 70    
Maximum Humidity 94    
Minimum Humidity 46    
Precipitation  
Precipitation 0.00 in - - ()
Sea Level Pressure  
Sea Level Pressure 30.06 in    
Wind  
Wind Speed 9 mph (NNE)    
Max Wind Speed 18 mph    
Max Gust Speed 22 mph    
Visibility 10 miles    
Events Rain    
Averages and records for this station are not official NWS values.
T = Trace of Precipitation, MM = Missing Value Source: NWS Daily Summary

Daily Weather History Graph

Daily Weather History Graph

Search for Another Location

Airport or City:

Trip Planner

Search our weather history database for the weather conditions in past years. The results will help you decide how hot, cold, wet, or windy it might be!

Date:

Astronomy

May. 09, 2013 Rise Set
Actual Time 6:02 AM CDT 8:42 PM CDT
Civil Twilight 5:29 AM CDT 9:16 PM CDT
Nautical Twilight 4:46 AM CDT 9:58 PM CDT
Astronomical Twilight 3:57 AM CDT 10:48 PM CDT
Moon 5:49 AM CDT (5/9) 8:38 PM CDT (5/9)
Length of Visible Light 15h 47m
Length of Day
14h 39m
Waning Crescent, 0% of the Moon is Illuminated
May 9
Waning Crescent
May 9
New
May 17
First Quarter
May 24
Full
May 31
Last Quarter

Hourly Weather History & Observations

Time (CDT) Temp. Windchill Dew Point Humidity Pressure Visibility Wind Dir Wind Speed Gust Speed Precip Events Conditions
12:13 AM 57.2 °F - 51.8 °F 82% 30.03 in 10.0 mi North 5.8 mph - N/A   Overcast
12:34 AM 57.2 °F - 51.8 °F 82% 30.04 in 10.0 mi NNE 5.8 mph - N/A   Overcast
12:54 AM 57.2 °F - 51.8 °F 82% 30.03 in 10.0 mi NE 3.5 mph - N/A Rain Light Rain
1:13 AM 55.4 °F - 51.8 °F 88% 30.03 in 10.0 mi NNE 4.6 mph - N/A   Overcast
1:34 AM 55.4 °F - 51.8 °F 88% 30.02 in 10.0 mi NNE 5.8 mph - N/A   Drizzle
1:53 AM 55.4 °F - 51.8 °F 88% 30.02 in 7.0 mi NNE 5.8 mph - N/A   Overcast
2:14 AM 55.4 °F - 51.8 °F 88% 30.02 in 7.0 mi North 6.9 mph - N/A   Overcast
2:34 AM 55.4 °F - 51.8 °F 88% 30.02 in 10.0 mi NNW 8.1 mph - N/A   Overcast
2:54 AM 53.6 °F - 51.8 °F 94% 30.03 in 7.0 mi North 8.1 mph - N/A   Mostly Cloudy
3:14 AM 53.6 °F - 51.8 °F 94% 30.03 in 5.0 mi NNW 6.9 mph - N/A   Mostly Cloudy
3:34 AM 53.6 °F - 51.8 °F 94% 30.03 in 7.0 mi NW 5.8 mph - N/A   Overcast
3:53 AM 53.6 °F - 50.0 °F 88% 30.02 in 7.0 mi NW 6.9 mph - N/A   Overcast
4:14 AM 51.8 °F - 48.2 °F 88% 30.02 in 10.0 mi NNW 9.2 mph - N/A   Overcast
4:34 AM 51.8 °F - 46.4 °F 82% 30.03 in 10.0 mi NNW 6.9 mph - N/A   Overcast
4:53 AM 50.0 °F - 44.6 °F 82% 30.03 in 10.0 mi NNW 9.2 mph - N/A   Overcast
5:14 AM 48.2 °F - 44.6 °F 87% 30.03 in 10.0 mi NNW 9.2 mph - N/A   Overcast
5:34 AM 48.2 °F - 44.6 °F 87% 30.03 in 10.0 mi NNW 8.1 mph - N/A   Overcast
5:53 AM 48.2 °F - 44.6 °F 87% 30.03 in 10.0 mi NNW 9.2 mph - N/A   Overcast
6:14 AM 48.2 °F - 44.6 °F 87% 30.04 in 10.0 mi NNW 10.4 mph - N/A   Overcast
6:34 AM 48.2 °F - 44.6 °F 87% 30.04 in 10.0 mi NNW 9.2 mph - N/A   Overcast
6:53 AM 46.4 °F 41.5 °F 44.6 °F 93% 30.04 in 10.0 mi NNW 10.4 mph - N/A   Light Drizzle
7:14 AM 46.4 °F 41.1 °F 42.8 °F 87% 30.05 in 10.0 mi NNW 11.5 mph - N/A Rain Light Rain
7:34 AM 46.4 °F 40.7 °F 42.8 °F 87% 30.05 in 10.0 mi NNW 12.7 mph - N/A   Mostly Cloudy
7:53 AM 46.4 °F 40.7 °F 42.8 °F 87% 30.06 in 10.0 mi NNW 12.7 mph - N/A   Overcast
8:14 AM 46.4 °F 41.5 °F 42.8 °F 87% 30.07 in 10.0 mi NNW 10.4 mph - N/A   Overcast
8:34 AM 46.4 °F 40.4 °F 41.0 °F 81% 30.08 in 10.0 mi NNW 13.8 mph - N/A   Overcast
8:54 AM 46.4 °F 40.4 °F 41.0 °F 81% 30.08 in 10.0 mi NNW 13.8 mph 17.3 mph N/A   Mostly Cloudy
9:14 AM 48.2 °F - 41.0 °F 76% 30.08 in 10.0 mi NNW 13.8 mph - N/A   Mostly Cloudy
9:34 AM 48.2 °F - 41.0 °F 76% 30.08 in 10.0 mi NNW 12.7 mph - N/A   Overcast
9:54 AM 48.2 °F - 42.8 °F 82% 30.09 in 10.0 mi NNW 13.8 mph - N/A   Mostly Cloudy
10:34 AM 51.8 °F - 42.8 °F 71% 30.08 in 10.0 mi North 13.8 mph - N/A   Scattered Clouds
10:53 AM 53.6 °F - 42.8 °F 67% 30.09 in 10.0 mi NNW 17.3 mph - N/A   Scattered Clouds
11:14 AM 55.4 °F - 42.8 °F 63% 30.09 in 10.0 mi North 15.0 mph - N/A   Clear
11:34 AM 59.0 °F - 44.6 °F 59% 30.08 in 10.0 mi North 18.4 mph 21.9 mph N/A   Clear
12:14 PM 60.8 °F - 44.6 °F 55% 30.07 in 10.0 mi NNW 13.8 mph 19.6 mph N/A   Clear
12:34 PM 62.6 °F - 44.6 °F 52% 30.07 in 10.0 mi North 16.1 mph - N/A   Clear
12:54 PM 64.4 °F - 44.6 °F 49% 30.06 in 10.0 mi North 15.0 mph 19.6 mph N/A   Clear
1:14 PM 66.2 °F - 44.6 °F 46% 30.05 in 10.0 mi NNE 12.7 mph 18.4 mph N/A   Clear
1:34 PM 66.2 °F - 46.4 °F 49% 30.06 in 10.0 mi NE 13.8 mph 21.9 mph N/A   Scattered Clouds
1:54 PM 66.2 °F - 44.6 °F 46% 30.05 in 10.0 mi NNE 8.1 mph 18.4 mph N/A   Mostly Cloudy
2:14 PM 66.2 °F - 46.4 °F 49% 30.05 in 10.0 mi NE 8.1 mph 19.6 mph N/A   Overcast
2:33 PM 66.2 °F - 46.4 °F 49% 30.05 in 10.0 mi NNE 12.7 mph 16.1 mph N/A   Overcast
2:54 PM 66.2 °F - 46.4 °F 49% 30.04 in 10.0 mi NE 8.1 mph 18.4 mph N/A   Overcast
3:13 PM 66.2 °F - 46.4 °F 49% 30.05 in 10.0 mi NE 11.5 mph - N/A   Overcast
3:34 PM 66.2 °F - 46.4 °F 49% 30.05 in 10.0 mi NE 10.4 mph 16.1 mph N/A   Overcast
3:54 PM 64.4 °F - 48.2 °F 56% 30.05 in 10.0 mi ENE 8.1 mph - N/A   Overcast
4:13 PM 64.4 °F - 48.2 °F 56% 30.05 in 10.0 mi East 12.7 mph - N/A   Overcast
4:34 PM 62.6 °F - 48.2 °F 59% 30.04 in 10.0 mi East 12.7 mph - N/A   Overcast
4:54 PM 62.6 °F - 48.2 °F 59% 30.05 in 10.0 mi East 13.8 mph - N/A   Overcast
5:13 PM 62.6 °F - 48.2 °F 59% 30.05 in 10.0 mi ENE 9.2 mph - N/A   Mostly Cloudy
5:34 PM 64.4 °F - 48.2 °F 56% 30.04 in 10.0 mi ENE 11.5 mph 16.1 mph N/A   Mostly Cloudy
5:54 PM 62.6 °F - 48.2 °F 59% 30.05 in 10.0 mi ENE 10.4 mph - N/A   Mostly Cloudy
6:14 PM 62.6 °F - 48.2 °F 59% 30.05 in 10.0 mi East 13.8 mph 17.3 mph N/A   Overcast
6:34 PM 62.6 °F - 46.4 °F 55% 30.06 in 10.0 mi East 12.7 mph - N/A   Overcast
6:54 PM 60.8 °F - 48.2 °F 63% 30.06 in 10.0 mi East 11.5 mph - N/A   Overcast
7:14 PM 60.8 °F - 46.4 °F 59% 30.07 in 10.0 mi East 13.8 mph - N/A   Overcast
7:34 PM 60.8 °F - 46.4 °F 59% 30.07 in 10.0 mi East 13.8 mph - N/A   Overcast
7:53 PM 60.8 °F - 46.4 °F 59% 30.08 in 10.0 mi East 12.7 mph - N/A   Overcast
8:14 PM 57.2 °F - 46.4 °F 67% 30.09 in 10.0 mi East 15.0 mph - N/A   Overcast
8:34 PM 55.4 °F - 44.6 °F 67% 30.10 in 10.0 mi East 15.0 mph - N/A   Overcast
8:54 PM 55.4 °F - 42.8 °F 63% 30.11 in 10.0 mi East 15.0 mph - N/A   Overcast
9:14 PM 53.6 °F - 42.8 °F 67% 30.11 in 10.0 mi East 13.8 mph - N/A   Overcast
9:33 PM 53.6 °F - 42.8 °F 67% 30.12 in 10.0 mi East 12.7 mph - N/A   Overcast
9:54 PM 53.6 °F - 42.8 °F 67% 30.14 in 10.0 mi East 15.0 mph 18.4 mph N/A   Overcast
10:14 PM 53.6 °F - 42.8 °F 67% 30.15 in 10.0 mi East 10.4 mph - N/A   Overcast
10:34 PM 51.8 °F - 39.2 °F 62% 30.15 in 10.0 mi East 18.4 mph - N/A   Overcast
10:54 PM 51.8 °F - 39.2 °F 62% 30.15 in 10.0 mi East 15.0 mph - N/A   Overcast
11:14 PM 51.8 °F - 37.4 °F 58% 30.15 in 10.0 mi East 11.5 mph - N/A   Overcast
11:34 PM 50.0 °F - 35.6 °F 58% 30.16 in 10.0 mi East 9.2 mph - N/A   Overcast
11:54 PM 50.0 °F - 35.6 °F 58% 30.16 in 10.0 mi ESE 9.2 mph - N/A   Overcast